Home > Weather > Paradise > Past weeks

Flag for U.S.A. Weather for the Past 2 Weeks in Paradise, California, U.S.A.

Now
66 °F

Sunny.


Feels Like: 66 °F
Forecast: 52 / 68 °F
Wind: 12 mph from Northwest

Location: Chico Municipal

Current Time: Feb 8, 2016 at 11:57:45 AM

Latest Report: Feb 8, 2016 at 10:50 AM


Visibility: 80 mi

Pressure: 30.29 "Hg (28.48 "Hg at 527m altitude)

Humidity: 49%

Dew point: 46 °F

Location of ParadiseLocation

Historic Weather in Paradise — Graph

°F

Paradise Temperature Yesterday

Maximum temperature yesterday: 75 °F (at 2:50 PM)
Minimum temperature yesterday: 41 °F (at 6:55 AM)
Average temperature yesterday: 55 °F

High & Low Weather Summary for the Past Weeks

 TemperatureHumidityPressure
High75 °F (Feb 7, 2:50 PM)100% (Jan 24, 9:55 PM)30.52 "Hg (Jan 24, 9:55 PM)
Low36 °F (Feb 1, 2:55 AM)32% (Feb 7, 10:15 PM)29.71 "Hg (Jan 31, 1:51 PM)
Average47 °F81%30.27 "Hg
* Reported Jan 24 10:55 AM — Feb 8 10:50 AM, Paradise, Weather by CustomWeather, © 2016

Note: Actual official high and low records may vary slightly from our data, if they occured in-between our weather recording intervals... More about our weather records

Advertising

Paradise Weather History for the Previous 24 Hours

 ConditionsComfort  
Time TempWeatherWind HumidityBarometerVisibility
10:50 AM
Mon, Feb 8
66 °FSunny.12 mph49%30.29 "Hg80 mi
9:47 AM59 °FSunny.9 mph59%30.28 "Hg80 mi
8:50 AM54 °FSunny.6 mph67%30.28 "Hg80 mi
7:50 AM48 °FSunny.6 mph71%30.28 "Hg80 mi
6:47 AM46 °FClear.No wind76%30.27 "Hg80 mi
5:35 AM48 °FClear.No wind66%30.28 "Hg10 mi
5:15 AM50 °FClear.3 mph62%30.28 "Hg10 mi
4:55 AM46 °FClear.No wind76%30.29 "Hg10 mi
4:35 AM48 °FClear.5 mph71%30.28 "Hg10 mi
4:15 AM48 °FClear.No wind71%30.28 "Hg10 mi
3:55 AM46 °FClear.No wind76%30.28 "Hg10 mi
3:35 AM50 °FClear.No wind67%30.28 "Hg10 mi
3:15 AM50 °FClear.No wind67%30.28 "Hg10 mi
2:55 AM48 °FClear.7 mph71%30.28 "Hg10 mi
2:35 AM50 °FClear.No wind67%30.29 "Hg10 mi
2:15 AM54 °FClear.7 mph58%30.29 "Hg10 mi
1:55 AM52 °FClear.7 mph62%30.29 "Hg10 mi
1:35 AM50 °FClear.No wind71%30.29 "Hg10 mi
1:15 AM55 °FClear.No wind55%30.29 "Hg10 mi
12:55 AM55 °FClear.No wind55%30.29 "Hg10 mi
12:35 AM55 °FClear.No wind55%30.30 "Hg10 mi
12:15 AM55 °FClear.No wind59%30.30 "Hg10 mi
11:55 PM
Sun, Feb 7
57 °FClear.6 mph55%30.30 "Hg10 mi
11:35 PM64 °FClear.6 mph37%30.29 "Hg10 mi
11:15 PM59 °FClear.8 mph48%30.29 "Hg10 mi
10:55 PM64 °FClear.10 mph34%30.29 "Hg10 mi
10:35 PM64 °FClear.10 mph34%30.28 "Hg10 mi
10:15 PM66 °FClear.8 mph32%30.28 "Hg10 mi
9:55 PM59 °FClear.No wind51%30.29 "Hg4 mi
9:35 PM57 °FClear.5 mph63%30.28 "Hg10 mi
9:15 PM57 °FClear.No wind63%30.28 "Hg10 mi
8:55 PM59 °FClear.6 mph59%30.28 "Hg10 mi
8:35 PM59 °FClear.6 mph59%30.28 "Hg10 mi
8:15 PM64 °FClear.7 mph40%30.27 "Hg10 mi
7:15 PM64 °FClear.7 mph52%30.26 "Hg10 mi
6:35 PM68 °FClear.9 mph43%30.25 "Hg10 mi
5:55 PM68 °FClear.3 mph49%30.25 "Hg10 mi
2:50 PM75 °FSunny.14 mph39%30.23 "Hg80 mi
1:50 PM73 °FSunny.17 mph41%30.24 "Hg80 mi
12:52 PM72 °FSunny.14 mph41%30.27 "Hg80 mi
11:45 AM66 °FSunny.14 mph49%30.32 "Hg80 mi
Weather by CustomWeather, © 2016

See weather overviewHow to use our weather pages